| time (UTC) | temp C | wind direction | speed KPH | gust KPH | rain 1hr cm | rain 24hr cm | rain mn cm | humidity % | barometer mb |
| 20260507132334 | 6 | 343 | 4.8 | 14.5 | 0.00 | 0.10 | 0.00 | 59 | 1014.2 |
| 20260507131825 | 6 | 332 | 4.8 | 14.5 | 0.00 | 0.10 | 0.00 | 59 | 1014.2 |
| 20260507131316 | 6 | 326 | 6.4 | 12.9 | 0.00 | 0.10 | 0.00 | 59 | 1014.2 |
| 20260507130830 | 6 | 310 | 4.8 | 12.9 | 0.00 | 0.10 | 0.00 | 58 | 1014.2 |
| 20260507130323 | 6 | 319 | 4.8 | 17.7 | 0.00 | 0.10 | 0.00 | 58 | 1014.2 |
| 20260507125854 | 6 | 322 | 6.4 | 17.7 | 0.00 | 0.10 | 0.00 | 59 | 1014.2 |
| 20260507125324 | 6 | 295 | 3.2 | 11.3 | 0.00 | 0.10 | 0.00 | 57 | 1014.2 |
| 20260507124835 | 6 | 349 | 4.8 | 14.5 | 0.00 | 0.10 | 0.00 | 59 | 1014.2 |
| 20260507124329 | 6 | 325 | 3.2 | 16.1 | 0.00 | 0.10 | 0.00 | 57 | 1014.1 |
| 20260507123819 | 6 | 331 | 9.7 | 16.1 | 0.00 | 0.10 | 0.00 | 57 | 1014.1 |
| 20260507123333 | 6 | 291 | 6.4 | 16.1 | 0.00 | 0.10 | 0.00 | 57 | 1014.1 |
| 20260507122824 | 6 | 326 | 4.8 | 16.1 | 0.00 | 0.10 | 0.00 | 55 | 1014.0 |
| 20260507122335 | 6 | 333 | 6.4 | 14.5 | 0.00 | 0.10 | 0.00 | 55 | 1014.0 |
| 20260507121829 | 7 | 330 | 6.4 | 11.3 | 0.00 | 0.10 | 0.00 | 53 | 1014.0 |
| 20260507121320 | 7 | 328 | 4.8 | 9.7 | 0.00 | 0.10 | 0.00 | 52 | 1013.9 |
| 20260507120833 | 7 | 349 | 6.4 | 9.7 | 0.00 | 0.10 | 0.00 | 51 | 1013.9 |
| 20260507120326 | 7 | 324 | 3.2 | 11.3 | 0.00 | 0.10 | 0.00 | 53 | 1013.9 |
| 20260507115821 | 7 | 323 | 6.4 | 11.3 | 0.00 | 0.10 | 0.00 | 52 | 1013.8 |
| 20260507115334 | 7 | 333 | 3.2 | 16.1 | 0.00 | 0.10 | 0.00 | 52 | 1013.9 |
| 20260507114822 | 7 | 315 | 6.4 | 16.1 | 0.00 | 0.10 | 0.00 | 51 | 1013.8 |
| 20260507114336 | 7 | 264 | 6.4 | 16.1 | 0.00 | 0.10 | 0.00 | 52 | 1013.7 |
| 20260507113827 | 7 | 326 | 8.0 | 14.5 | 0.00 | 0.10 | 0.00 | 51 | 1013.6 |
| 20260507113321 | 7 | 342 | 3.2 | 9.7 | 0.00 | 0.10 | 0.00 | 48 | 1013.6 |
| 20260507112834 | 7 | 343 | 4.8 | 9.7 | 0.00 | 0.10 | 0.00 | 51 | 1013.6 |
| 20260507112327 | 6 | 309 | 4.8 | 11.3 | 0.00 | 0.10 | 0.00 | 58 | 1013.5 |
| 20260507111843 | 6 | 8 | 3.2 | 12.9 | 0.00 | 0.10 | 0.00 | 54 | 1013.5 |
| 20260507111336 | 6 | 325 | 4.8 | 14.5 | 0.00 | 0.10 | 0.00 | 56 | 1013.5 |
| 20260507110826 | 5 | 360 | 4.8 | 16.1 | 0.00 | 0.10 | 0.00 | 56 | 1013.4 |
| 20260507110320 | 5 | 303 | 6.4 | 16.1 | 0.00 | 0.10 | 0.00 | 56 | 1013.4 |
| 20260507105830 | 5 | 314 | 4.8 | 16.1 | 0.00 | 0.10 | 0.00 | 52 | 1013.3 |
| 20260507105344 | 6 | 319 | 3.2 | 12.9 | 0.00 | 0.10 | 0.00 | 54 | 1013.4 |
| 20260507104835 | 5 | 341 | 4.8 | 8.0 | 0.00 | 0.10 | 0.00 | 56 | 1013.3 |
| 20260507104328 | 5 | 295 | 3.2 | 8.0 | 0.00 | 0.10 | 0.00 | 56 | 1013.4 |
| 20260507103817 | 5 | 297 | 3.2 | 9.7 | 0.00 | 0.10 | 0.00 | 56 | 1013.3 |
| 20260507103334 | 5 | 316 | 4.8 | 16.1 | 0.00 | 0.10 | 0.00 | 55 | 1013.2 |
| 20260507102825 | 5 | 291 | 8.0 | 16.1 | 0.00 | 0.10 | 0.00 | 53 | 1013.2 |
| 20260507102356 | 5 | 341 | 3.2 | 8.0 | 0.00 | 0.10 | 0.00 | 53 | 1013.1 |
| 20260507101828 | 5 | 310 | 3.2 | 14.5 | 0.00 | 0.10 | 0.00 | 53 | 1013.1 |
| 20260507101341 | 5 | 330 | 8.0 | 14.5 | 0.00 | 0.10 | 0.00 | 56 | 1013.1 |
| 20260507100831 | 5 | 299 | 4.8 | 8.0 | 0.00 | 0.10 | 0.00 | 54 | 1013.0 |
| 20260507100322 | 5 | 308 | 1.6 | 8.0 | 0.00 | 0.10 | 0.00 | 54 | 1013.0 |
| 20260507095834 | 5 | 277 | 3.2 | 9.7 | 0.00 | 0.10 | 0.00 | 52 | 1012.9 |
| 20260507095327 | 4 | 323 | 3.2 | 9.7 | 0.00 | 0.10 | 0.00 | 56 | 1013.0 |
| 20260507094821 | 4 | 254 | 1.6 | 9.7 | 0.00 | 0.10 | 0.00 | 57 | 1012.9 |
| 20260507094353 | 4 | 258 | 4.8 | 9.7 | 0.00 | 0.10 | 0.00 | 54 | 1013.0 |
| 20260507093837 | 5 | 305 | 1.6 | 14.5 | 0.00 | 0.10 | 0.00 | 52 | 1012.9 |
| 20260507093329 | 5 | 322 | 4.8 | 14.5 | 0.00 | 0.10 | 0.00 | 55 | 1012.9 |
| 20260507092818 | 5 | 313 | 0.0 | 6.4 | 0.00 | 0.30 | 0.00 | 53 | 1012.8 |
| 20260507092330 | 5 | 323 | 3.2 | 14.5 | 0.00 | 0.30 | 0.00 | 53 | 1012.9 |
| 20260507091838 | 5 | 341 | 8.0 | 14.5 | 0.00 | 0.30 | 0.00 | 55 | 1012.8 |
| 20260507091329 | 5 | 335 | 3.2 | 14.5 | 0.00 | 0.30 | 0.00 | 55 | 1012.8 |
| 20260507090820 | 5 | 359 | 4.8 | 14.5 | 0.00 | 0.30 | 0.00 | 54 | 1012.7 |
| 20260507090333 | 5 | 335 | 3.2 | 11.3 | 0.00 | 0.30 | 0.00 | 54 | 1012.7 |
| 20260507085825 | 5 | 338 | 6.4 | 11.3 | 0.00 | 0.30 | 0.00 | 56 | 1012.6 |
| 20260507085358 | 5 | 357 | 1.6 | 8.0 | 0.00 | 0.30 | 0.00 | 55 | 1012.6 |
| 20260507084826 | 5 | 349 | 0.0 | 4.8 | 0.00 | 0.30 | 0.00 | 54 | 1012.6 |
| 20260507084318 | 5 | 348 | 1.6 | 4.8 | 0.00 | 0.30 | 0.00 | 54 | 1012.5 |
| 20260507083830 | 5 | 347 | 1.6 | 8.0 | 0.00 | 0.30 | 0.00 | 55 | 1012.5 |
| 20260507083322 | 5 | 341 | 6.4 | 8.0 | 0.00 | 0.30 | 0.00 | 60 | 1012.5 |
| 20260507082835 | 4 | 343 | 0.0 | 8.0 | 0.00 | 0.51 | 0.00 | 59 | 1012.5 |
| 20260507082326 | 3 | 344 | 1.6 | 12.9 | 0.00 | 0.51 | 0.00 | 59 | 1012.4 |
| 20260507081838 | 3 | 346 | 4.8 | 12.9 | 0.00 | 0.51 | 0.00 | 60 | 1012.4 |
| 20260507081328 | 3 | 329 | 3.2 | 9.7 | 0.00 | 0.51 | 0.00 | 60 | 1012.4 |
| 20260507080824 | 3 | 310 | 3.2 | 8.0 | 0.00 | 0.51 | 0.00 | 62 | 1012.4 |
| 20260507080316 | 3 | 286 | 3.2 | 8.0 | 0.00 | 0.51 | 0.00 | 63 | 1012.3 |
| 20260507075850 | 3 | 328 | 3.2 | 8.0 | 0.00 | 0.51 | 0.00 | 66 | 1012.3 |
| 20260507075320 | 3 | 316 | 0.0 | 8.0 | 0.00 | 0.51 | 0.00 | 65 | 1012.3 |
| 20260507074854 | 3 | 315 | 3.2 | 14.5 | 0.00 | 0.51 | 0.00 | 66 | 1012.3 |
| 20260507074323 | 3 | 326 | 3.2 | 14.5 | 0.00 | 0.51 | 0.00 | 67 | 1012.3 |
| 20260507073836 | 3 | 332 | 3.2 | 9.7 | 0.00 | 0.51 | 0.00 | 69 | 1012.2 |
| 20260507073328 | 3 | 330 | 4.8 | 9.7 | 0.00 | 0.51 | 0.00 | 69 | 1012.2 |
| 20260507072835 | 3 | 328 | 1.6 | 6.4 | 0.00 | 0.79 | 0.00 | 68 | 1012.2 |
| 20260507072330 | 3 | 328 | 3.2 | 6.4 | 0.00 | 0.79 | 0.00 | 69 | 1012.2 |
| 20260507071821 | 2 | 4 | 0.0 | 9.7 | 0.00 | 0.79 | 0.00 | 72 | 1012.0 |
| 20260507071332 | 2 | 3 | 3.2 | 9.7 | 0.00 | 0.79 | 0.00 | 72 | 1012.0 |
| 20260507070825 | 2 | 347 | 0.0 | 4.8 | 0.00 | 0.79 | 0.00 | 71 | 1011.9 |
| 20260507070318 | 2 | 347 | 1.6 | 4.8 | 0.00 | 0.79 | 0.00 | 73 | 1011.9 |
| 20260507065829 | 2 | 345 | 1.6 | 4.8 | 0.00 | 0.79 | 0.00 | 74 | 1011.9 |
| 20260507065341 | 2 | 43 | 1.6 | 4.8 | 0.00 | 0.79 | 0.00 | 75 | 1012.0 |
| 20260507064834 | 2 | 43 | 3.2 | 4.8 | 0.00 | 0.79 | 0.00 | 74 | 1011.8 |
| 20260507064326 | 2 | 16 | 0.0 | 6.4 | 0.00 | 0.79 | 0.00 | 75 | 1011.8 |
| 20260507063818 | 2 | 16 | 3.2 | 6.4 | 0.00 | 0.79 | 0.00 | 76 | 1011.8 |
| 20260507063332 | 1 | 59 | 0.0 | 6.4 | 0.00 | 0.79 | 0.00 | 77 | 1011.7 |
| 20260507062820 | 1 | 79 | 1.6 | 4.8 | 0.00 | 0.89 | 0.00 | 77 | 1011.7 |
| 20260507062333 | 1 | 82 | 0.0 | 1.6 | 0.00 | 0.89 | 0.00 | 77 | 1011.7 |
| 20260507061845 | 1 | 82 | 0.0 | 4.8 | 0.00 | 0.89 | 0.00 | 79 | 1011.6 |
| 20260507061317 | 1 | 82 | 1.6 | 4.8 | 0.00 | 0.89 | 0.00 | 80 | 1011.6 |
| 20260507060831 | 1 | 85 | 0.0 | 3.2 | 0.00 | 0.89 | 0.00 | 80 | 1011.6 |
| 20260507060345 | 1 | 86 | 0.0 | 0.0 | 0.00 | 0.89 | 0.00 | 81 | 1011.5 |
| 20260507055832 | 1 | 86 | 0.0 | 0.0 | 0.00 | 0.89 | 0.00 | 83 | 1011.4 |
| 20260507055329 | 1 | 86 | 0.0 | 3.2 | 0.00 | 0.89 | 0.00 | 83 | 1011.4 |
| 20260507054840 | 0 | 86 | 0.0 | 3.2 | 0.00 | 0.89 | 0.00 | 83 | 1011.4 |
| 20260507054333 | 0 | 87 | 0.0 | 1.6 | 0.00 | 0.89 | 0.00 | 83 | 1011.5 |
| 20260507053824 | 0 | 87 | 0.0 | 0.0 | 0.00 | 0.89 | 0.00 | 83 | 1011.4 |
| 20260507053317 | 0 | 87 | 0.0 | 1.6 | 0.00 | 0.89 | 0.00 | 85 | 1011.3 |
| 20260507052829 | 0 | 87 | 0.0 | 1.6 | 0.00 | 0.89 | 0.00 | 85 | 1011.3 |
| 20260507052320 | 0 | 87 | 0.0 | 0.0 | 0.00 | 0.89 | 0.00 | 85 | 1011.3 |
| 20260507051834 | 0 | 87 | 0.0 | 1.6 | 0.00 | 0.89 | 0.00 | 85 | 1011.2 |
| 20260507051345 | 0 | 87 | 0.0 | 1.6 | 0.00 | 0.89 | 0.00 | 85 | 1011.1 |
| 20260507050818 | 0 | 87 | 0.0 | 0.0 | 0.00 | 0.89 | 0.00 | 86 | 1011.1 |
| 20260507050333 | 0 | 87 | 0.0 | 0.0 | 0.00 | 0.89 | 0.00 | 86 | 1011.1 |
| 20260507045823 | 0 | 87 | 0.0 | 0.0 | 0.00 | 0.89 | 0.00 | 86 | 1011.1 |
| 20260507045337 | 0 | 87 | 0.0 | 0.0 | 0.00 | 0.89 | 0.00 | 86 | 1011.1 |
| 20260507044830 | 0 | 87 | 0.0 | 0.0 | 0.00 | 0.89 | 0.00 | 87 | 1011.1 |
| 20260507044342 | 0 | 87 | 0.0 | 0.0 | 0.00 | 0.89 | 0.00 | 88 | 1011.0 |
| 20260507043833 | 0 | 87 | 0.0 | 0.0 | 0.00 | 0.89 | 0.00 | 88 | 1011.0 |
| 20260507043324 | 0 | 86 | 0.0 | 0.0 | 0.00 | 0.89 | 0.00 | 88 | 1011.0 |
| 20260507042857 | 0 | 87 | 0.0 | 1.6 | 0.00 | 0.89 | 0.00 | 88 | 1011.0 |
| 20260507042326 | 0 | 87 | 0.0 | 1.6 | 0.00 | 0.89 | 0.00 | 88 | 1010.9 |
| 20260507041857 | 0 | 87 | 0.0 | 1.6 | 0.00 | 0.89 | 0.00 | 89 | 1010.9 |
| 20260507041348 | 0 | 87 | 0.0 | 0.0 | 0.00 | 0.89 | 0.00 | 89 | 1010.9 |
| 20260507040824 | 0 | 87 | 0.0 | 0.0 | 0.00 | 0.89 | 0.00 | 89 | 1010.9 |
| 20260507040336 | -1 | 87 | 0.0 | 0.0 | 0.00 | 0.89 | 0.00 | 90 | 1010.9 |
| 20260507035824 | -1 | 87 | 0.0 | 0.0 | 0.00 | 0.89 | 0.00 | 90 | 1010.9 |
| 20260507035335 | -1 | 86 | 0.0 | 0.0 | 0.00 | 0.89 | 0.00 | 91 | 1010.8 |
| 20260507034827 | -1 | 87 | 0.0 | 0.0 | 0.00 | 0.89 | 0.00 | 90 | 1010.8 |
| 20260507034335 | -1 | 86 | 0.0 | 0.0 | 0.00 | 0.89 | 0.00 | 90 | 1010.8 |
| 20260507033827 | -1 | 87 | 0.0 | 0.0 | 0.00 | 0.89 | 0.00 | 90 | 1010.8 |
| 20260507033342 | -1 | 86 | 0.0 | 1.6 | 0.00 | 0.89 | 0.00 | 89 | 1010.8 |
| 20260507032833 | -1 | 86 | 0.0 | 1.6 | 0.00 | 0.89 | 0.00 | 89 | 1010.7 |
| 20260507032327 | -1 | 86 | 0.0 | 0.0 | 0.00 | 0.89 | 0.00 | 89 | 1010.7 |
| 20260507031818 | -1 | 86 | 0.0 | 0.0 | 0.00 | 0.89 | 0.00 | 89 | 1010.7 |
| 20260507031350 | -1 | 86 | 0.0 | 0.0 | 0.00 | 0.89 | 0.00 | 88 | 1010.7 |
| 20260507030837 | -1 | 86 | 0.0 | 0.0 | 0.00 | 0.89 | 0.00 | 88 | 1010.6 |
| 20260507030331 | -1 | 86 | 0.0 | 3.2 | 0.00 | 0.89 | 0.00 | 88 | 1010.6 |
| 20260507025822 | -1 | 86 | 1.6 | 3.2 | 0.00 | 0.89 | 0.00 | 87 | 1010.6 |
| 20260507025333 | -1 | 86 | 0.0 | 0.0 | 0.00 | 0.89 | 0.00 | 87 | 1010.6 |
| 20260507024826 | -1 | 86 | 0.0 | 3.2 | 0.00 | 0.89 | 0.00 | 87 | 1010.6 |
| 20260507024337 | -1 | 86 | 0.0 | 4.8 | 0.00 | 0.89 | 0.00 | 87 | 1010.6 |
| 20260507023828 | -1 | 86 | 1.6 | 4.8 | 0.00 | 0.89 | 0.00 | 88 | 1010.6 |
| 20260507023324 | -1 | 86 | 0.0 | 4.8 | 0.00 | 0.89 | 0.00 | 88 | 1010.6 |
| 20260507022836 | -1 | 86 | 1.6 | 4.8 | 0.00 | 0.89 | 0.00 | 87 | 1010.6 |
| 20260507022328 | -1 | 86 | 0.0 | 3.2 | 0.00 | 0.89 | 0.00 | 88 | 1010.6 |
| 20260507021819 | -1 | 86 | 0.0 | 1.6 | 0.00 | 0.89 | 0.00 | 88 | 1010.6 |
| 20260507021329 | -1 | 86 | 0.0 | 1.6 | 0.00 | 0.89 | 0.00 | 89 | 1010.6 |
| 20260507020840 | -1 | 86 | 0.0 | 0.0 | 0.00 | 0.89 | 0.00 | 89 | 1010.5 |
| 20260507020333 | -1 | 86 | 0.0 | 0.0 | 0.00 | 0.89 | 0.00 | 88 | 1010.4 |
| 20260507015825 | -1 | 86 | 0.0 | 3.2 | 0.00 | 0.89 | 0.00 | 87 | 1010.4 |
| 20260507015336 | -1 | 86 | 0.0 | 3.2 | 0.00 | 0.89 | 0.00 | 87 | 1010.4 |
| 20260507014833 | -1 | 86 | 0.0 | 1.6 | 0.00 | 0.89 | 0.00 | 87 | 1010.4 |
| 20260507014346 | -1 | 86 | 0.0 | 1.6 | 0.00 | 0.89 | 0.00 | 87 | 1010.3 |
| 20260507013816 | -1 | 86 | 0.0 | 3.2 | 0.00 | 0.89 | 0.00 | 86 | 1010.3 |
| 20260507013329 | -1 | 86 | 0.0 | 9.7 | 0.00 | 0.89 | 0.00 | 86 | 1010.2 |
| 20260507012822 | -1 | 86 | 4.8 | 9.7 | 0.00 | 0.89 | 0.00 | 85 | 1010.2 |
| 20260507012336 | -1 | 85 | 4.8 | 9.7 | 0.00 | 0.89 | 0.00 | 85 | 1010.2 |
| 20260507011825 | -1 | 60 | 3.2 | 6.4 | 0.00 | 0.89 | 0.00 | 86 | 1010.3 |
| 20260507011338 | -1 | 58 | 1.6 | 6.4 | 0.00 | 0.89 | 0.00 | 85 | 1010.2 |
| 20260507010830 | -1 | 58 | 3.2 | 6.4 | 0.00 | 0.89 | 0.00 | 85 | 1010.2 |
| 20260507010328 | -1 | 58 | 1.6 | 6.4 | 0.00 | 0.89 | 0.00 | 85 | 1010.2 |
| 20260507005820 | -1 | 57 | 0.0 | 1.6 | 0.00 | 0.89 | 0.00 | 86 | 1010.2 |
| 20260507005334 | -1 | 57 | 0.0 | 4.8 | 0.00 | 0.89 | 0.00 | 86 | 1010.1 |
| 20260507004817 | -1 | 57 | 1.6 | 6.4 | 0.00 | 0.89 | 0.00 | 87 | 1010.1 |
| 20260507004331 | -1 | 58 | 1.6 | 6.4 | 0.00 | 0.89 | 0.00 | 87 | 1010.0 |
| 20260507003818 | -1 | 57 | 3.2 | 6.4 | 0.00 | 0.89 | 0.00 | 87 | 1010.0 |
| 20260507003330 | -1 | 54 | 0.0 | 6.4 | 0.00 | 0.89 | 0.00 | 87 | 1009.9 |
| 20260507002820 | -1 | 54 | 4.8 | 9.7 | 0.00 | 0.89 | 0.00 | 87 | 1010.0 |
| 20260507002332 | -1 | 51 | 4.8 | 6.4 | 0.00 | 0.89 | 0.00 | 87 | 1010.0 |
| 20260507001828 | -1 | 47 | 4.8 | 6.4 | 0.00 | 0.89 | 0.00 | 88 | 1010.0 |
| 20260507001321 | -1 | 39 | 4.8 | 6.4 | 0.00 | 0.89 | 0.00 | 88 | 1010.0 |
| 20260507000830 | -1 | 34 | 3.2 | 6.4 | 0.00 | 0.89 | 0.00 | 88 | 1010.0 |
| 20260507000322 | -1 | 31 | 3.2 | 6.4 | 0.00 | 0.89 | 0.00 | 88 | 1010.0 |
| 20260506235832 | -1 | 30 | 1.6 | 4.8 | 0.00 | 0.89 | 0.00 | 87 | 1010.0 |
| 20260506235324 | -1 | 29 | 1.6 | 4.8 | 0.00 | 0.89 | 0.00 | 87 | 1010.0 |
| 20260506234856 | 0 | 29 | 0.0 | 1.6 | 0.00 | 0.89 | 0.00 | 87 | 1009.9 |
| 20260506234327 | 0 | 29 | 0.0 | 1.6 | 0.00 | 0.89 | 0.00 | 87 | 1009.8 |
| 20260506233856 | 0 | 29 | 0.0 | 0.0 | 0.00 | 0.89 | 0.00 | 86 | 1009.9 |
| 20260506233330 | 0 | 29 | 0.0 | 0.0 | 0.00 | 0.89 | 0.00 | 87 | 1009.8 |
| 20260506232822 | 0 | 29 | 0.0 | 0.0 | 0.00 | 0.89 | 0.00 | 87 | 1009.8 |
| 20260506232335 | 0 | 29 | 0.0 | 0.0 | 0.00 | 0.89 | 0.00 | 87 | 1009.8 |
| 20260506231846 | 0 | 29 | 0.0 | 0.0 | 0.00 | 0.89 | 0.00 | 87 | 1009.7 |
| 20260506231317 | 0 | 29 | 0.0 | 0.0 | 0.00 | 0.89 | 0.00 | 86 | 1009.8 |
| 20260506230849 | 0 | 29 | 0.0 | 0.0 | 0.00 | 0.89 | 0.00 | 86 | 1009.7 |
| 20260506230323 | 0 | 29 | 0.0 | 4.8 | 0.00 | 0.89 | 0.00 | 87 | 1009.7 |
| 20260506225833 | 0 | 29 | 0.0 | 9.7 | 0.00 | 0.89 | 0.00 | 87 | 1009.7 |
| 20260506225327 | 0 | 29 | 3.2 | 9.7 | 0.00 | 0.89 | 0.00 | 87 | 1009.7 |
| 20260506224823 | 0 | 316 | 0.0 | 0.0 | 0.00 | 0.89 | 0.00 | 87 | 1009.6 |
| 20260506224335 | 0 | 316 | 0.0 | 0.0 | 0.00 | 0.89 | 0.00 | 87 | 1009.7 |
| 20260506223828 | 0 | 316 | 0.0 | 3.2 | 0.00 | 0.89 | 0.00 | 87 | 1009.7 |
| 20260506223318 | 0 | 316 | 0.0 | 3.2 | 0.00 | 0.89 | 0.00 | 87 | 1009.6 |
| 20260506222829 | 0 | 316 | 1.6 | 4.8 | 0.00 | 0.89 | 0.18 | 87 | 1009.6 |
| 20260506222321 | 0 | 315 | 0.0 | 4.8 | 0.00 | 0.89 | 0.18 | 87 | 1009.6 |
| 20260506221831 | 0 | 315 | 1.6 | 3.2 | 0.00 | 0.89 | 0.18 | 87 | 1009.5 |
| 20260506221345 | 0 | 315 | 0.0 | 4.8 | 0.00 | 0.89 | 0.18 | 87 | 1009.5 |
| 20260506220834 | 0 | 315 | 0.0 | 6.4 | 0.00 | 0.89 | 0.18 | 87 | 1009.5 |
| 20260506220333 | 0 | 315 | 1.6 | 6.4 | 0.00 | 0.89 | 0.18 | 87 | 1009.4 |
| 20260506215842 | 0 | 313 | 1.6 | 3.2 | 0.00 | 0.89 | 0.18 | 88 | 1009.4 |
| 20260506215334 | 0 | 313 | 0.0 | 3.2 | 0.00 | 0.89 | 0.18 | 88 | 1009.2 |
| 20260506214825 | 0 | 313 | 0.0 | 1.6 | 0.00 | 0.89 | 0.18 | 88 | 1009.2 |
| 20260506214319 | 0 | 313 | 0.0 | 3.2 | 0.00 | 0.89 | 0.18 | 88 | 1009.2 |
| 20260506213849 | 0 | 313 | 0.0 | 3.2 | 0.00 | 0.89 | 0.18 | 88 | 1009.1 |
| 20260506213321 | 0 | 313 | 0.0 | 0.0 | 0.00 | 0.89 | 0.18 | 89 | 1009.1 |
| 20260506212834 | 0 | 313 | 0.0 | 0.0 | 0.00 | 0.89 | 0.18 | 89 | 1009.0 |
| 20260506212326 | 0 | 313 | 0.0 | 0.0 | 0.00 | 0.89 | 0.18 | 90 | 1009.0 |
| 20260506211857 | 0 | 313 | 0.0 | 3.2 | 0.00 | 0.89 | 0.18 | 90 | 1009.0 |
| 20260506211331 | 0 | 313 | 0.0 | 3.2 | 0.00 | 0.89 | 0.18 | 90 | 1009.0 |
| 20260506210839 | 0 | 313 | 0.0 | 3.2 | 0.00 | 0.89 | 0.18 | 90 | 1009.0 |
| 20260506210352 | 0 | 313 | 0.0 | 0.0 | 0.00 | 0.89 | 0.18 | 90 | 1009.0 |
| 20260506205820 | 0 | 313 | 0.0 | 0.0 | 0.00 | 0.89 | 0.18 | 90 | 1009.0 |
| 20260506205330 | 0 | 313 | 0.0 | 0.0 | 0.00 | 0.89 | 0.18 | 90 | 1009.0 |
| 20260506204839 | 0 | 313 | 0.0 | 0.0 | 0.00 | 0.89 | 0.18 | 89 | 1009.0 |
| 20260506204329 | 0 | 313 | 0.0 | 0.0 | 0.00 | 0.89 | 0.18 | 89 | 1009.0 |
| 20260506203821 | 0 | 313 | 0.0 | 4.8 | 0.00 | 0.89 | 0.18 | 88 | 1009.0 |
| 20260506203333 | 0 | 313 | 0.0 | 6.4 | 0.00 | 0.89 | 0.18 | 87 | 1009.0 |
| 20260506202846 | 0 | 312 | 3.2 | 6.4 | 0.00 | 0.89 | 0.18 | 86 | 1009.0 |
| 20260506202317 | 0 | 307 | 1.6 | 4.8 | 0.00 | 0.89 | 0.18 | 84 | 1009.0 |
| 20260506201851 | 0 | 307 | 1.6 | 8.0 | 0.00 | 0.89 | 0.18 | 84 | 1009.0 |
| 20260506201326 | 0 | 307 | 3.2 | 8.0 | 0.00 | 0.89 | 0.18 | 83 | 1008.9 |
| 20260506200819 | 1 | 313 | 3.2 | 6.4 | 0.00 | 0.89 | 0.18 | 83 | 1008.9 |
| 20260506200333 | 1 | 312 | 3.2 | 6.4 | 0.00 | 0.89 | 0.18 | 83 | 1008.9 |
| 20260506195823 | 1 | 332 | 1.6 | 4.8 | 0.00 | 0.89 | 0.18 | 82 | 1008.8 |
| 20260506195355 | 1 | 332 | 0.0 | 4.8 | 0.00 | 0.89 | 0.18 | 82 | 1008.8 |
| 20260506194827 | 1 | 332 | 1.6 | 4.8 | 0.00 | 0.89 | 0.18 | 81 | 1008.8 |
| 20260506194318 | 1 | 332 | 0.0 | 3.2 | 0.00 | 0.89 | 0.18 | 81 | 1008.8 |
| 20260506193830 | 1 | 332 | 1.6 | 3.2 | 0.00 | 0.89 | 0.18 | 81 | 1008.8 |
| 20260506193324 | 1 | 332 | 0.0 | 4.8 | 0.00 | 0.89 | 0.18 | 80 | 1008.7 |
| 20260506192856 | 1 | 332 | 0.0 | 4.8 | 0.00 | 0.89 | 0.18 | 80 | 1008.7 |
| 20260506192327 | 1 | 332 | 0.0 | 3.2 | 0.00 | 0.89 | 0.18 | 80 | 1008.7 |
| 20260506191818 | 1 | 332 | 0.0 | 4.8 | 0.00 | 0.89 | 0.18 | 80 | 1008.6 |
| 20260506191329 | 1 | 332 | 1.6 | 6.4 | 0.00 | 0.89 | 0.18 | 80 | 1008.7 |
| 20260506190819 | 1 | 330 | 1.6 | 6.4 | 0.00 | 0.89 | 0.18 | 79 | 1008.5 |
| 20260506190332 | 1 | 330 | 1.6 | 4.8 | 0.00 | 0.89 | 0.18 | 79 | 1008.5 |
| 20260506185822 | 2 | 330 | 1.6 | 4.8 | 0.00 | 0.89 | 0.18 | 79 | 1008.4 |
| 20260506185336 | 2 | 330 | 3.2 | 6.4 | 0.00 | 0.89 | 0.18 | 78 | 1008.4 |
| 20260506184832 | 2 | 328 | 1.6 | 9.7 | 0.00 | 0.89 | 0.18 | 78 | 1008.4 |
| 20260506184324 | 2 | 329 | 3.2 | 8.0 | 0.00 | 0.89 | 0.18 | 77 | 1008.3 |
| 20260506183856 | 2 | 330 | 3.2 | 12.9 | 0.00 | 0.89 | 0.18 | 76 | 1008.2 |
| 20260506183329 | 2 | 354 | 3.2 | 12.9 | 0.00 | 0.89 | 0.18 | 76 | 1008.2 |
| 20260506182819 | 2 | 349 | 3.2 | 14.5 | 0.00 | 0.89 | 0.18 | 76 | 1008.2 |
| 20260506182330 | 2 | 332 | 6.4 | 14.5 | 0.00 | 0.89 | 0.18 | 76 | 1008.1 |
| 20260506181823 | 2 | 337 | 4.8 | 9.7 | 0.00 | 0.89 | 0.18 | 77 | 1008.2 |
| 20260506181334 | 3 | 343 | 1.6 | 6.4 | 0.00 | 0.89 | 0.18 | 76 | 1008.2 |
| 20260506180827 | 3 | 345 | 3.2 | 6.4 | 0.00 | 0.89 | 0.18 | 77 | 1008.1 |
| 20260506180322 | 3 | 360 | 0.0 | 4.8 | 0.00 | 0.89 | 0.18 | 76 | 1008.1 |
| 20260506175833 | 3 | 360 | 0.0 | 8.0 | 0.00 | 0.89 | 0.18 | 76 | 1008.1 |
| 20260506175323 | 3 | 357 | 1.6 | 8.0 | 0.00 | 0.89 | 0.18 | 77 | 1008.0 |
| 20260506174816 | 3 | 339 | 3.2 | 8.0 | 0.00 | 0.89 | 0.18 | 76 | 1008.0 |
| 20260506174327 | 3 | 329 | 3.2 | 6.4 | 0.00 | 0.89 | 0.18 | 76 | 1008.0 |
| 20260506173840 | 3 | 323 | 1.6 | 9.7 | 0.00 | 0.89 | 0.18 | 76 | 1008.0 |
| 20260506173353 | 3 | 341 | 6.4 | 9.7 | 0.10 | 0.89 | 0.18 | 75 | 1008.0 |
| 20260506172825 | 3 | 358 | 3.2 | 12.9 | 0.10 | 0.89 | 0.18 | 75 | 1008.0 |
| 20260506172357 | 3 | 354 | 6.4 | 11.3 | 0.10 | 0.89 | 0.18 | 75 | 1007.9 |
| 20260506171827 | 3 | 353 | 6.4 | 11.3 | 0.10 | 0.89 | 0.18 | 76 | 1007.9 |
| 20260506171324 | 3 | 339 | 3.2 | 14.5 | 0.10 | 0.89 | 0.18 | 76 | 1007.8 |
| 20260506170835 | 3 | 308 | 3.2 | 14.5 | 0.10 | 0.89 | 0.18 | 76 | 1007.9 |
| 20260506170328 | 3 | 332 | 4.8 | 14.5 | 0.10 | 0.89 | 0.18 | 76 | 1007.8 |
| 20260506165816 | 3 | 330 | 4.8 | 14.5 | 0.10 | 0.89 | 0.18 | 75 | 1007.8 |
| 20260506165330 | 3 | 308 | 4.8 | 19.3 | 0.10 | 0.89 | 0.18 | 75 | 1007.8 |
| 20260506164844 | 4 | 23 | 9.7 | 19.3 | 0.10 | 0.89 | 0.18 | 74 | 1007.8 |
| 20260506164336 | 4 | 316 | 11.3 | 19.3 | 0.10 | 0.89 | 0.18 | 75 | 1007.7 |
| 20260506163847 | 4 | 319 | 9.7 | 20.9 | 0.10 | 0.89 | 0.18 | 75 | 1007.7 |
| 20260506163319 | 4 | 291 | 11.3 | 24.1 | 0.00 | 0.79 | 0.15 | 76 | 1007.7 |
| 20260506162853 | 4 | 326 | 9.7 | 20.9 | 0.00 | 0.79 | 0.15 | 78 | 1007.7 |
| 20260506162328 | 3 | 296 | 6.4 | 16.1 | 0.00 | 0.79 | 0.15 | 78 | 1007.6 |
| 20260506161818 | 3 | 281 | 6.4 | 16.1 | 0.00 | 0.79 | 0.15 | 77 | 1007.6 |
| 20260506161330 | 3 | 281 | 6.4 | 11.3 | 0.00 | 0.79 | 0.15 | 79 | 1007.6 |
| 20260506160823 | 3 | 297 | 6.4 | 12.9 | 0.00 | 0.79 | 0.15 | 81 | 1007.6 |
| 20260506160317 | 2 | 281 | 6.4 | 12.9 | 0.00 | 0.79 | 0.15 | 81 | 1007.6 |
| 20260506155828 | 2 | 261 | 6.4 | 17.7 | 0.00 | 0.79 | 0.15 | 78 | 1007.6 |
| 20260506155320 | 3 | 302 | 6.4 | 17.7 | 0.00 | 0.79 | 0.15 | 75 | 1007.5 |
| 20260506154815 | 3 | 281 | 6.4 | 12.9 | 0.00 | 0.79 | 0.15 | 74 | 1007.4 |
| 20260506154328 | 3 | 308 | 4.8 | 11.3 | 0.00 | 0.79 | 0.15 | 74 | 1007.4 |
| 20260506153840 | 3 | 341 | 4.8 | 11.3 | 0.00 | 0.79 | 0.15 | 73 | 1007.4 |
| 20260506153331 | 3 | 291 | 4.8 | 11.3 | 0.00 | 0.79 | 0.15 | 73 | 1007.4 |
| 20260506152823 | 3 | 231 | 3.2 | 11.3 | 0.00 | 0.79 | 0.15 | 71 | 1007.4 |
| 20260506152334 | 4 | 281 | 3.2 | 14.5 | 0.00 | 0.79 | 0.15 | 70 | 1007.4 |
| 20260506151827 | 4 | 275 | 4.8 | 14.5 | 0.00 | 0.79 | 0.15 | 67 | 1007.4 |
| 20260506151318 | 5 | 297 | 3.2 | 14.5 | 0.00 | 0.79 | 0.15 | 67 | 1007.4 |
| 20260506150831 | 5 | 296 | 6.4 | 14.5 | 0.00 | 0.79 | 0.15 | 64 | 1007.4 |
| 20260506150328 | 5 | 305 | 3.2 | 9.7 | 0.00 | 0.79 | 0.15 | 62 | 1007.3 |
| 20260506145816 | 6 | 314 | 3.2 | 14.5 | 0.00 | 0.79 | 0.15 | 60 | 1007.4 |
| 20260506145329 | 6 | 320 | 6.4 | 16.1 | 0.00 | 0.79 | 0.15 | 59 | 1007.3 |
| 20260506144820 | 6 | 332 | 8.0 | 16.1 | 0.00 | 0.79 | 0.15 | 60 | 1007.2 |
| 20260506144332 | 6 | 332 | 6.4 | 16.1 | 0.00 | 0.79 | 0.15 | 60 | 1007.2 |
| 20260506143821 | 7 | 349 | 3.2 | 12.9 | 0.00 | 0.79 | 0.15 | 60 | 1007.2 |
| 20260506143355 | 7 | 6 | 4.8 | 14.5 | 0.00 | 0.79 | 0.15 | 59 | 1007.3 |
| 20260506142825 | 7 | 268 | 8.0 | 17.7 | 0.00 | 0.79 | 0.15 | 58 | 1007.1 |
| 20260506142317 | 7 | 331 | 9.7 | 17.7 | 0.00 | 0.79 | 0.15 | 60 | 1007.1 |
| 20260506141835 | 6 | 334 | 4.8 | 17.7 | 0.00 | 0.79 | 0.15 | 62 | 1007.1 |
| 20260506141326 | 6 | 23 | 4.8 | 22.5 | 0.00 | 0.79 | 0.15 | 61 | 1007.1 |
| 20260506140835 | 6 | 342 | 4.8 | 22.5 | 0.00 | 0.79 | 0.15 | 59 | 1007.1 |
| 20260506140327 | 6 | 31 | 9.7 | 19.3 | 0.00 | 0.79 | 0.15 | 61 | 1007.1 |
| 20260506135817 | 6 | 341 | 8.0 | 19.3 | 0.00 | 0.79 | 0.15 | 60 | 1007.0 |
| 20260506135330 | 6 | 306 | 4.8 | 16.1 | 0.00 | 0.79 | 0.15 | 60 | 1007.0 |
| 20260506134818 | 6 | 286 | 4.8 | 17.7 | 0.00 | 0.79 | 0.15 | 60 | 1007.0 |
| 20260506134329 | 6 | 320 | 6.4 | 17.7 | 0.00 | 0.79 | 0.15 | 60 | 1006.9 |
| 20260506133842 | 6 | 312 | 4.8 | 14.5 | 0.00 | 0.79 | 0.15 | 60 | 1006.9 |
| 20260506133318 | 6 | 311 | 6.4 | 16.1 | 0.00 | 0.79 | 0.15 | 58 | 1007.0 |
| 20260506132850 | 7 | 309 | 8.0 | 17.7 | 0.00 | 0.79 | 0.15 | 56 | 1007.0 |